weather.gov     
National Weather Service

Terminal Aerodrome Forecast
NWS Homepage
This page is being discontinued on March 12, 2014.
The same data is available at this site. Please update your bookmarks.
Thank you, and we apologize for the inconvenience.
Please send an email to SR-SRH.Webmaster@noaa.gov with any concerns.


Current Version
Previous Version:    01  02  03  04  05  06  07  08  09  10  11  12  13  14  15  16  17  18  19  20  21  22  23  24  25  26  27  28  29  30  
   31  32  33  34  35  36  37  38  39  40  41  42  43  44  45  
[Printable]
133
FTUS41 KILN 210500
TAFILN
TAF
KILN 210537Z 2106/2206 21005KT P6SM BKN120
     FM211200 21005KT P6SM -SHRA VCTS OVC050CB
      TEMPO 2112/2116 3SM -TSRA BR OVC025CB
     FM211600 23010KT P6SM VCSH SCT050 BKN100
     FM220000 22005KT P6SM SCT100 BKN150=


U.S. Dept. of Commerce
NOAA National Weather Service
1325 East West Highway
Silver Spring, MD 20910
E-mail: w-nws.webmaster@noaa.gov
Page last modified: May 16, 2007
NATIONAL WEATHER SERVICE: for Safety, for Work, for Fun - FOR LIFE